Location: Mascot Post Office (historical)
(40.2645°N, 99.5462°W)
Time: 21:54:01
(UTC+00:00)

SeaSat 1 - Visible Passes

Search period start: 22 October 2020 00:00
Search period end: 01 November 2020 00:00
Orbit: 744 x 748 km, 108.0° (Epoch: 22 October)

Date Brightness Start Highest point End Pass type
(mag) Time Alt. Az. Time Alt. Az. Time Alt. Az.
22 Oct 2.6 01:22:18 32° ESE 01:24:12 50° ENE 01:28:58 10° NNW visible
22 Oct 4.6 03:02:07 21° WSW 03:02:07 21° WSW 03:05:36 10° WNW visible
23 Oct 3.7 00:39:40 14° E 00:42:22 21° NE 00:46:01 10° N visible
23 Oct 2.9 02:19:29 57° WSW 02:19:30 57° WSW 02:24:22 10° NW visible
24 Oct 2.5 01:36:49 51° E 01:37:21 54° ENE 01:42:11 10° NNW visible
24 Oct 5.0 03:16:38 17° W 03:16:38 17° W 03:18:36 10° WNW visible
25 Oct 3.6 00:54:07 20° ENE 00:55:30 23° NE 00:59:18 10° N visible
25 Oct 3.6 02:33:56 41° WNW 02:33:56 41° WNW 02:37:30 10° NW visible
26 Oct 2.7 01:51:12 54° NNE 01:51:12 54° NNE 01:55:23 10° NNW visible
26 Oct 5.4 03:31:00 12° WNW 03:31:00 12° WNW 03:31:34 10° WNW visible
27 Oct 3.5 01:08:27 24° NE 01:08:38 24° NE 01:12:35 10° N visible
27 Oct 4.3 02:48:15 27° NW 02:48:15 27° NW 02:50:38 10° NW visible
28 Oct 4.4 00:25:53 10° ENE 00:27:03 11° NE 00:28:11 10° NNE visible
28 Oct 3.4 02:05:28 38° N 02:05:28 38° N 02:08:35 10° NNW visible
29 Oct 3.7 01:22:40 25° NE 01:22:40 25° NE 01:25:50 10° N visible
29 Oct 4.9 03:02:27 18° NW 03:02:27 18° NW 03:03:45 10° NW visible
30 Oct 4.3 00:39:49 12° NE 00:40:09 12° NE 00:41:50 10° NNE visible
30 Oct 4.1 02:19:37 26° NNW 02:19:37 26° NNW 02:21:46 10° NNW visible
31 Oct 4.0 01:36:46 22° NNE 01:36:46 22° NNE 01:39:06 10° N visible
31 Oct 5.3 03:16:35 11° NW 03:16:35 11° NW 03:16:52 10° NW visible
